• en Suisse
  • Liste des pays
  • À 7 jours
  • Température de l'eau
  • Carte satellitaire
  • Carte météo
  • Widgets météo
  • user-avatar
    Se connecter

    Météo par heure à Maidstone

    Ce jour, 17 Août, Vendredi

    Heure Température Précipitation Vent Pression Humidité
    00:00 +13°C° 0 mm 3 m/s 760 mmHg 80%
    01:00 +13°C° 0 mm 3 m/s 760 mmHg 81%
    02:00 +13°C° 0 mm 3 m/s 760 mmHg 82%
    03:00 +13°C° 0 mm 3 m/s 761 mmHg 83%
    04:00 +13°C° 0 mm 3 m/s 761 mmHg 83%
    05:00 +13°C° 0 mm 3 m/s 761 mmHg 83%
    06:00 +13°C° 0 mm 3 m/s 762 mmHg 82%
    07:00 +16°C° 0 mm 3 m/s 762 mmHg 75%
    08:00 +17°C° 0 mm 3 m/s 762 mmHg 67%
    09:00 +19°C° 0 mm 3 m/s 762 mmHg 60%
    10:00 +20°C° 0 mm 3 m/s 763 mmHg 56%
    11:00 +21°C° 0 mm 4 m/s 763 mmHg 51%
    12:00 +22°C° 0 mm 4 m/s 763 mmHg 47%
    13:00 +22°C° 0 mm 4 m/s 763 mmHg 49%
    14:00 +22°C° 0 mm 5 m/s 763 mmHg 50%
    15:00 +22°C° 0 mm 5 m/s 763 mmHg 51%
    16:00 +21°C° 0 mm 5 m/s 763 mmHg 54%
    17:00 +21°C° 0 mm 5 m/s 763 mmHg 57%
    18:00 +20°C° 0 mm 4 m/s 763 mmHg 60%
    19:00 +19°C° 0 mm 4 m/s 763 mmHg 64%
    20:00 +18°C° 0 mm 4 m/s 763 mmHg 67%
    21:00 +17°C° 0 mm 4 m/s 764 mmHg 71%
    22:00 +17°C° 0 mm 4 m/s 764 mmHg 74%
    23:00 +17°C° 0 mm 4 m/s 764 mmHg 76%

    Demain, 18 Août, Samedi

    Heure Température Précipitation Vent Pression Humidité
    00:00 +15°C° 0 mm 4 m/s 764 mmHg 79%
    01:00 +15°C° 0 mm 4 m/s 764 mmHg 81%
    02:00 +15°C° 0 mm 4 m/s 764 mmHg 84%
    03:00 +15°C° 0 mm 4 m/s 764 mmHg 86%
    04:00 +15°C° 0 mm 4 m/s 764 mmHg 86%
    05:00 +15°C° 0 mm 4 m/s 764 mmHg 86%
    06:00 +15°C° 0 mm 4 m/s 764 mmHg 86%
    07:00 +18°C° 0 mm 4 m/s 764 mmHg 80%
    08:00 +19°C° 0 mm 4 m/s 764 mmHg 73%
    09:00 +21°C° 0 mm 5 m/s 764 mmHg 67%
    10:00 +21°C° 0 mm 5 m/s 764 mmHg 67%
    11:00 +21°C° 0 mm 5 m/s 764 mmHg 68%
    12:00 +21°C° 0 mm 5 m/s 764 mmHg 68%
    13:00 +21°C° 0 mm 5 m/s 764 mmHg 67%
    14:00 +22°C° 0 mm 5 m/s 764 mmHg 65%
    15:00 +22°C° 0 mm 5 m/s 764 mmHg 64%
    16:00 +22°C° 0 mm 5 m/s 764 mmHg 66%
    17:00 +22°C° 0 mm 4 m/s 764 mmHg 68%
    18:00 +21°C° 0 mm 4 m/s 764 mmHg 71%
    19:00 +20°C° 0 mm 4 m/s 764 mmHg 74%
    20:00 +20°C° 0 mm 4 m/s 764 mmHg 78%
    21:00 +19°C° 0 mm 4 m/s 765 mmHg 82%
    22:00 +18°C° 0 mm 4 m/s 764 mmHg 84%
    23:00 +18°C° 0 mm 4 m/s 764 mmHg 86%

    Après-demain, 19 Août, Dimanche

    Heure Température Précipitation Vent Pression Humidité
    00:00 +17°C° 0 mm 4 m/s 764 mmHg 89%
    01:00 +17°C° 0 mm 4 m/s 764 mmHg 90%
    02:00 +17°C° 0 mm 4 m/s 764 mmHg 91%
    03:00 +17°C° 0 mm 4 m/s 764 mmHg 92%
    04:00 +17°C° 0 mm 4 m/s 764 mmHg 93%
    05:00 +18°C° 0 mm 4 m/s 763 mmHg 93%
    06:00 +18°C° 0 mm 4 m/s 763 mmHg 93%
    07:00 +19°C° 0 mm 5 m/s 763 mmHg 88%
    08:00 +20°C° 0 mm 5 m/s 763 mmHg 83%
    09:00 +20°C° 0 mm 6 m/s 763 mmHg 78%
    10:00 +22°C° 0 mm 6 m/s 763 mmHg 72%
    11:00 +23°C° 0 mm 7 m/s 763 mmHg 66%
    12:00 +24°C° 0 mm 7 m/s 763 mmHg 59%
    13:00 +23°C° 0 mm 7 m/s 762 mmHg 64%
    14:00 +22°C° 0 mm 7 m/s 762 mmHg 68%
    15:00 +22°C° 0 mm 7 m/s 762 mmHg 72%
    16:00 +21°C° 0 mm 6 m/s 762 mmHg 74%
    17:00 +21°C° 0 mm 6 m/s 762 mmHg 76%
    18:00 +21°C° 0 mm 6 m/s 761 mmHg 79%
    19:00 +20°C° 0 mm 5 m/s 762 mmHg 81%
    20:00 +20°C° 0 mm 5 m/s 762 mmHg 83%
    21:00 +20°C° 0 mm 4 m/s 762 mmHg 85%
    22:00 +19°C° 0 mm 4 m/s 762 mmHg 87%
    23:00 +19°C° 0 mm 4 m/s 762 mmHg 90%

    20 Août, Lundi

    Heure Température Précipitation Vent Pression Humidité
    00:00 +18°C° 0 mm 3 m/s 762 mmHg 92%
    01:00 +18°C° 0 mm 3 m/s 762 mmHg 92%
    02:00 +18°C° 0 mm 3 m/s 762 mmHg 92%
    03:00 +18°C° 0 mm 3 m/s 762 mmHg 93%
    04:00 +17°C° 0 mm 3 m/s 762 mmHg 92%
    05:00 +17°C° 0 mm 3 m/s 762 mmHg 92%
    06:00 +17°C° 0 mm 3 m/s 762 mmHg 91%
    07:00 +19°C° 0 mm 3 m/s 763 mmHg 86%
    08:00 +20°C° 0 mm 3 m/s 763 mmHg 81%
    09:00 +21°C° 0 mm 3 m/s 763 mmHg 75%
    10:00 +22°C° 0 mm 3 m/s 763 mmHg 69%
    11:00 +24°C° 0 mm 3 m/s 763 mmHg 63%
    12:00 +25°C° 0 mm 2 m/s 764 mmHg 57%
    13:00 +26°C° 0 mm 3 m/s 763 mmHg 52%
    14:00 +27°C° 0 mm 3 m/s 763 mmHg 48%
    15:00 +28°C° 0 mm 3 m/s 763 mmHg 43%
    16:00 +27°C° 0 mm 3 m/s 763 mmHg 47%
    17:00 +27°C° 0 mm 3 m/s 763 mmHg 50%
    18:00 +26°C° 0 mm 3 m/s 763 mmHg 54%
    19:00 +25°C° 0 mm 3 m/s 763 mmHg 61%
    20:00 +24°C° 0 mm 3 m/s 763 mmHg 67%
    21:00 +21°C° 0 mm 3 m/s 764 mmHg 74%
    22:00 +21°C° 0 mm 3 m/s 764 mmHg 78%
    23:00 +20°C° 0 mm 3 m/s 764 mmHg 82%

    21 Août, Mardi

    Heure Température Précipitation Vent Pression Humidité
    00:00 +20°C° 0 mm 3 m/s 764 mmHg 86%
    01:00 +20°C° 0 mm 3 m/s 764 mmHg 88%
    02:00 +19°C° 0 mm 3 m/s 763 mmHg 90%
    03:00 +19°C° 0 mm 3 m/s 763 mmHg 91%
    04:00 +18°C° 0 mm 3 m/s 763 mmHg 91%
    05:00 +18°C° 0 mm 3 m/s 764 mmHg 90%
    06:00 +18°C° 0 mm 2 m/s 764 mmHg 90%
    07:00 +20°C° 0 mm 2 m/s 764 mmHg 83%
    08:00 +21°C° 0 mm 2 m/s 764 mmHg 76%
    09:00 +24°C° 0 mm 2 m/s 764 mmHg 70%
    10:00 +25°C° 0 mm 3 m/s 764 mmHg 66%
    11:00 +26°C° 0 mm 3 m/s 764 mmHg 63%
    12:00 +27°C° 0 mm 3 m/s 764 mmHg 59%
    13:00 +27°C° 0 mm 3 m/s 763 mmHg 59%
    14:00 +27°C° 0 mm 4 m/s 763 mmHg 60%
    15:00 +27°C° 0 mm 4 m/s 763 mmHg 60%
    16:00 +26°C° 0 mm 4 m/s 763 mmHg 61%
    17:00 +26°C° 0 mm 4 m/s 763 mmHg 62%
    18:00 +26°C° 0 mm 3 m/s 763 mmHg 64%
    19:00 +25°C° 0 mm 3 m/s 763 mmHg 68%
    20:00 +24°C° 0 mm 3 m/s 763 mmHg 72%
    21:00 +21°C° 0 mm 3 m/s 763 mmHg 75%
    22:00 +21°C° 0 mm 3 m/s 763 mmHg 77%
    23:00 +20°C° 0 mm 3 m/s 763 mmHg 79%

    22 Août, Mercredi

    Heure Température Précipitation Vent Pression Humidité
    00:00 +20°C° 0 mm 3 m/s 763 mmHg 81%
    01:00 +19°C° 0 mm 3 m/s 763 mmHg 82%
    02:00 +19°C° 0 mm 3 m/s 763 mmHg 84%
    03:00 +19°C° 0 mm 2 m/s 763 mmHg 85%
    04:00 +19°C° 0 mm 2 m/s 763 mmHg 85%
    05:00 +19°C° 0 mm 2 m/s 763 mmHg 84%
    06:00 +19°C° 0 mm 2 m/s 763 mmHg 83%
    07:00 +20°C° 0 mm 2 m/s 764 mmHg 77%
    08:00 +21°C° 0 mm 2 m/s 764 mmHg 71%
    09:00 +24°C° 0 mm 2 m/s 764 mmHg 64%
    10:00 +25°C° 0 mm 2 m/s 764 mmHg 61%
    11:00 +26°C° 0 mm 2 m/s 764 mmHg 57%
    12:00 +27°C° 0 mm 1 m/s 764 mmHg 54%
    13:00 +27°C° 0 mm 1 m/s 764 mmHg 55%
    14:00 +27°C° 0 mm 2 m/s 764 mmHg 55%
    15:00 +26°C° 0 mm 2 m/s 764 mmHg 56%
    16:00 +26°C° 0 mm 2 m/s 764 mmHg 59%
    17:00 +25°C° 0 mm 2 m/s 763 mmHg 62%
    18:00 +25°C° 0 mm 3 m/s 763 mmHg 64%
    19:00 +24°C° 0 mm 3 m/s 764 mmHg 70%
    20:00 +21°C° 0 mm 3 m/s 764 mmHg 75%
    21:00 +20°C° 0 mm 3 m/s 764 mmHg 81%
    22:00 +20°C° 0 mm 2 m/s 764 mmHg 82%
    23:00 +19°C° 0 mm 2 m/s 764 mmHg 83%
    Voir plus